Location: Newark
(33.9035°S, 18.4112°E)
Time: 10:02:30
(UTC+00:00)

STARLINK-1079 - Pass Details

Date: 20 January 2020
Orbit: 348 x 351 km, 53.0° (Epoch: 18 February)

Event Time Altitude Azimuth Distance (km) Brightness Sun altitude
Rises 11:44:19 0° 236° (SW) 2,182 6.7 72.9°
Reaches altitude 10° 11:46:30 10° 248° (WSW) 1,331 5.8 72.6°
Drops below altitude 10° 11:51:39 10° 10° (N) 1,314 5.9 71.8°
Enters shadow 12:17:16 -52° 41° (NE) 10,499 9.6 67.7°
Exits shadow 12:53:23 -56° 206° (SSW) 11,017 9.8 60.9°
Maximum altitude 02:38:21 43° 49° (NE) 513 3.5 -14.5°
